User: anonymous   Login
Location: Lawrence
(38.9720°N, 95.2350°W)
Time: 19:45:03
(UTC-06:00)
Language:

ALOS - Orbit

View from above orbital plane
View from above orbital plane
View from above satellite
View from above satellite

Ground track
Ground track

The orbit data is extracted from the following two-line orbital elements,

1 28931U 06002A   17326.80951206  .00000234  00000-0  54821-4 0  9994
2 28931  97.8318 346.1388 0001653 109.1399 250.9971 14.62425826630643
Epoch (UTC): 22 November 2017 19:25:41
Eccentricity: 0.0001653
inclination: 97.8318°
perigee height: 684 km
apogee height: 686 km
right ascension of ascending node: 346.1388°
argument of perigee: 109.1399°
revolutions per day: 14.62425826
mean anomaly at epoch: 250.9971°
orbit number at epoch: 63064

The dashed part of the orbit path shows where the satellite is in the earth's shadow,  

DLR